SWA2121 KOAK-KLAS

Flight info

Callsign SWA2121
Flight time N/A
Altitude 31000
Route CNDEL5 NTELL Q174 FLCHR COKTL4
Aircraft B737/M-SADE2E3GIJ4RWZ/LB1D1

Departure

Time 2026-05-04 02:36
Airport San Francisco Bay Oakland International Airport (KOAK)

Arrival

Time N/A
Airport Harry Reid International Airport (KLAS)
Time Latitude Longitude Altitude Speed Heading
2026-05-04 01:36 37.70927 -122.21341 8 ft 0 kts 126°
2026-05-04 02:28 37.70929 -122.21345 8 ft 3 kts 126°
2026-05-04 02:28 37.70947 -122.21372 9 ft 4 kts 136°
2026-05-04 02:28 37.70968 -122.21392 9 ft 4 kts 159°
2026-05-04 02:28 37.70990 -122.21395 8 ft 3 kts 211°
2026-05-04 02:29 37.70997 -122.21389 8 ft 0 kts 216°
2026-05-04 02:31 37.70995 -122.21391 8 ft 1 kts 216°
2026-05-04 02:31 37.70977 -122.21408 9 ft 5 kts 217°
2026-05-04 02:32 37.70938 -122.21445 8 ft 9 kts 217°
2026-05-04 02:32 37.70881 -122.21500 8 ft 12 kts 225°
2026-05-04 02:32 37.70858 -122.21605 8 ft 14 kts 238°
2026-05-04 02:32 37.70781 -122.21688 8 ft 16 kts 220°
2026-05-04 02:33 37.70689 -122.21778 8 ft 17 kts 196°
2026-05-04 02:33 37.70585 -122.21705 8 ft 20 kts 130°
2026-05-04 02:33 37.70489 -122.21562 8 ft 23 kts 130°
2026-05-04 02:33 37.70396 -122.21422 8 ft 17 kts 131°
2026-05-04 02:34 37.70293 -122.21367 8 ft 13 kts 160°
2026-05-04 02:34 37.70229 -122.21355 8 ft 10 kts 219°
2026-05-04 02:34 37.70180 -122.21409 9 ft 9 kts 219°
2026-05-04 02:34 37.70157 -122.21448 8 ft 1 kts 279°
2026-05-04 02:35 37.70162 -122.21453 7 ft 2 kts 316°
2026-05-04 02:35 37.70278 -122.21618 7 ft 60 kts 310°
2026-05-04 02:35 37.70700 -122.22255 8 ft 126 kts 310°
2026-05-04 02:35 37.71359 -122.23245 225 ft 157 kts 304°
2026-05-04 02:36 37.72049 -122.24304 1023 ft 155 kts 304°
2026-05-04 02:36 37.72747 -122.25365 1683 ft 166 kts 305°
2026-05-04 02:36 37.73533 -122.26551 2010 ft 196 kts 307°
2026-05-04 02:36 37.74506 -122.28010 2031 ft 229 kts 306°
2026-05-04 02:37 37.75593 -122.29621 2252 ft 254 kts 308°
2026-05-04 02:37 37.76743 -122.31320 3448 ft 256 kts 308°
2026-05-04 02:37 37.77923 -122.33074 4404 ft 270 kts 308°
2026-05-04 02:37 37.79022 -122.35063 5275 ft 278 kts 289°
2026-05-04 02:38 37.79351 -122.37442 6451 ft 276 kts 264°
2026-05-04 02:38 37.78735 -122.39705 7369 ft 275 kts 231°
2026-05-04 02:38 37.77316 -122.41292 8353 ft 275 kts 206°
2026-05-04 02:38 37.75509 -122.42078 9306 ft 276 kts 190°
2026-05-04 02:39 37.73600 -122.42506 9860 ft 282 kts 187°
2026-05-04 02:39 37.71649 -122.42876 10003 ft 286 kts 186°
2026-05-04 02:39 37.69621 -122.43243 10309 ft 310 kts 187°
2026-05-04 02:39 37.67426 -122.43655 10906 ft 324 kts 186°
2026-05-04 02:40 37.65179 -122.44095 11790 ft 329 kts 187°
2026-05-04 02:40 37.62898 -122.44562 12694 ft 334 kts 187°
2026-05-04 02:40 37.60590 -122.45040 13640 ft 339 kts 187°
2026-05-04 02:40 37.58241 -122.45525 14435 ft 344 kts 187°
2026-05-04 02:41 37.55899 -122.46011 15309 ft 347 kts 188°
2026-05-04 02:41 37.53506 -122.46510 16168 ft 351 kts 188°
2026-05-04 02:41 37.51070 -122.46686 16962 ft 353 kts 170°
2026-05-04 02:41 37.48749 -122.45712 17775 ft 354 kts 149°
2026-05-04 02:42 37.46823 -122.43797 18586 ft 355 kts 130°
2026-05-04 02:42 37.45327 -122.41317 19360 ft 358 kts 125°
2026-05-04 02:42 37.43889 -122.38733 20054 ft 363 kts 124°
2026-05-04 02:42 37.42417 -122.36109 20643 ft 370 kts 125°
2026-05-04 02:43 37.41067 -122.33340 21410 ft 371 kts 112°
2026-05-04 02:43 37.40303 -122.30225 22259 ft 372 kts 105°
2026-05-04 02:43 37.39673 -122.27068 22961 ft 377 kts 104°
2026-05-04 02:43 37.39061 -122.23835 23573 ft 382 kts 104°
2026-05-04 02:44 37.38447 -122.20564 24127 ft 386 kts 104°
2026-05-04 02:44 37.37823 -122.17281 24764 ft 387 kts 104°
2026-05-04 02:44 37.37185 -122.13978 25330 ft 390 kts 104°
2026-05-04 02:44 37.36534 -122.10649 25830 ft 395 kts 104°
2026-05-04 02:45 37.35869 -122.07281 26337 ft 399 kts 104°
2026-05-04 02:45 37.35192 -122.03880 26879 ft 402 kts 104°
2026-05-04 02:45 37.34519 -122.00508 27357 ft 406 kts 105°
2026-05-04 02:45 37.33820 -121.97030 27663 ft 415 kts 106°
2026-05-04 02:46 37.33101 -121.93485 28050 ft 421 kts 105°
2026-05-04 02:46 37.32377 -121.89905 28557 ft 424 kts 105°
2026-05-04 02:46 37.31651 -121.86303 29075 ft 426 kts 106°
2026-05-04 02:46 37.30921 -121.82694 29688 ft 426 kts 106°
2026-05-04 02:47 37.30191 -121.79087 30291 ft 424 kts 106°
2026-05-04 02:47 37.29467 -121.75512 30866 ft 423 kts 106°
2026-05-04 02:47 37.28009 -121.68313 30986 ft 427 kts 106°
2026-05-04 02:48 37.26522 -121.60993 30986 ft 436 kts 106°
2026-05-04 02:48 37.25005 -121.53575 30993 ft 447 kts 108°
2026-05-04 02:49 37.23436 -121.45941 30996 ft 455 kts 108°
2026-05-04 02:49 37.21868 -121.38301 30988 ft 446 kts 108°
2026-05-04 02:50 37.20307 -121.30748 30987 ft 449 kts 108°
2026-05-04 02:50 37.18731 -121.23155 30975 ft 450 kts 108°
2026-05-04 02:51 37.17147 -121.15552 30953 ft 452 kts 109°
2026-05-04 02:51 37.15562 -121.07968 30971 ft 455 kts 109°
2026-05-04 02:52 37.13946 -121.00252 30966 ft 457 kts 109°
2026-05-04 02:52 37.12322 -120.92527 30937 ft 459 kts 108°
2026-05-04 02:53 37.10691 -120.84797 30944 ft 458 kts 108°
2026-05-04 02:53 37.09072 -120.77145 30936 ft 456 kts 109°
2026-05-04 02:54 37.07417 -120.69377 30944 ft 467 kts 109°
2026-05-04 02:54 37.05734 -120.61493 30930 ft 467 kts 109°
2026-05-04 02:55 37.03219 -120.49730 30921 ft 465 kts 110°
2026-05-04 02:56 37.01539 -120.41920 30929 ft 465 kts 110°
2026-05-04 02:56 36.99849 -120.34100 30881 ft 467 kts 111°
2026-05-04 02:57 36.98108 -120.26100 30923 ft 485 kts 111°
2026-05-04 02:57 36.96329 -120.17910 30942 ft 488 kts 110°
2026-05-04 02:58 36.94559 -120.09772 30935 ft 485 kts 110°
2026-05-04 02:58 36.92807 -120.01747 30937 ft 476 kts 111°
2026-05-04 02:59 36.91338 -119.95081 30931 ft 480 kts 111°
2026-05-04 02:59 36.90636 -119.90978 30857 ft 492 kts 98°
2026-05-04 02:59 36.90814 -119.86650 30918 ft 508 kts 79°
2026-05-04 02:59 36.91916 -119.82410 30925 ft 518 kts 68°
2026-05-04 03:00 36.93302 -119.78238 30913 ft 522 kts 66°
2026-05-04 03:00 36.96168 -119.69924 30907 ft 520 kts 66°
2026-05-04 03:01 36.98969 -119.61597 30916 ft 518 kts 68°
2026-05-04 03:01 37.01603 -119.53418 30890 ft 498 kts 68°
2026-05-04 03:02 37.04197 -119.45466 30912 ft 489 kts 68°
2026-05-04 03:02 37.06753 -119.37593 30905 ft 488 kts 69°
2026-05-04 03:03 37.09276 -119.29773 30920 ft 488 kts 69°
2026-05-04 03:03 37.11819 -119.21868 30926 ft 489 kts 69°
2026-05-04 03:04 37.14365 -119.13929 30925 ft 492 kts 69°
2026-05-04 03:04 37.16919 -119.05947 30929 ft 493 kts 69°
2026-05-04 03:05 37.19453 -118.98007 30929 ft 494 kts 69°
2026-05-04 03:05 37.21995 -118.90017 30925 ft 493 kts 69°
2026-05-04 03:06 37.24533 -118.82020 30871 ft 492 kts 69°
2026-05-04 03:06 37.27031 -118.74034 30878 ft 490 kts 72°
2026-05-04 03:07 37.28344 -118.65686 30844 ft 487 kts 87°
2026-05-04 03:07 37.28920 -118.57248 30847 ft 483 kts 88°
2026-05-04 03:08 37.29483 -118.48918 30846 ft 480 kts 88°
2026-05-04 03:08 37.30104 -118.40427 30873 ft 496 kts 88°
2026-05-04 03:09 37.30753 -118.31665 30868 ft 508 kts 88°
2026-05-04 03:09 37.31409 -118.22854 30855 ft 506 kts 88°
2026-05-04 03:10 37.32055 -118.14064 30807 ft 503 kts 88°
2026-05-04 03:10 37.32686 -118.05340 30740 ft 499 kts 88°
2026-05-04 03:11 37.33302 -117.96747 30727 ft 495 kts 88°
2026-05-04 03:11 37.33912 -117.88156 30732 ft 492 kts 88°
2026-05-04 03:12 37.34510 -117.79592 30733 ft 492 kts 88°
2026-05-04 03:12 37.35105 -117.71016 30724 ft 493 kts 88°
2026-05-04 03:13 37.35685 -117.62458 30722 ft 494 kts 88°